Weather History for Marshalltown, IA

Change the Weather History Date:

Wednesday, March 7, 2012

  Actual Average Record
Temperature  
Mean Temperature 48 °F 32 °F  
Max Temperature 65 °F 41 °F 65 °F (2012)
Min Temperature 30 °F 22 °F -1 °F (2013)
Degree Days  
Heating Degree Days 17 33  
Month to date heating degree days 213 243  
Since 1 July heating degree days 4829 5646  
Cooling Degree Days 0 0  
Month to date cooling degree days 0 0  
Year to date cooling degree days 0 0  
Moisture  
Dew Point 40 °F    
Average Humidity 75    
Maximum Humidity 89    
Minimum Humidity 60    
Precipitation  
Precipitation T in 0.04 in 0.65 in (2009)
Month to date precipitation 0.02 0.35  
Year to date precipitation 0.85  
Sea Level Pressure  
Sea Level Pressure 29.75 in    
Wind  
Wind Speed 17 mph (WSW)    
Max Wind Speed 29 mph    
Max Gust Speed 37 mph    
Visibility 9 miles    
Events Rain    
T = Trace of Precipitation, MM = Missing Value Source: NWS Daily Summary

Daily Weather History Graph

Daily Weather History Graph

Search for Another Location

Airport:

Trip Planner

Search our weather history database for the weather conditions in past years. The results will help you decide how hot, cold, wet, or windy it might be!

Date:

Astronomy

Mar. 07, 2012 Rise Set
Actual Time 6:36 AM CST 6:09 PM CST
Civil Twilight 6:08 AM CST 6:37 PM CST
Nautical Twilight 5:35 AM CST 7:09 PM CST
Astronomical Twilight 5:03 AM CST 7:42 PM CST
Moon 5:47 PM CST (3/7) 5:46 AM CST (3/7)
Length of Visible Light 12h 29m
Length of Day
11h 33m
Waxing Gibbous, 99% of the Moon is Illuminated
Mar 7
Waxing Gibbous
Mar 8
Full
Mar 14
Last Quarter
Mar 22
New
Mar 30
First Quarter

Hourly Weather History & Observations

Time (CST) Temp. Windchill Dew Point Humidity Pressure Visibility Wind Dir Wind Speed Gust Speed Precip Events Conditions
12:53 AM 53.1 °F - 43.0 °F 69% 29.71 in 10.0 mi SSE 9.2 mph - N/A   Partly Cloudy
1:53 AM 54.0 °F - 43.0 °F 66% 29.71 in 10.0 mi SSE 11.5 mph - N/A   Clear
2:53 AM 53.1 °F - 43.0 °F 69% 29.69 in 10.0 mi South 11.5 mph - N/A   Clear
3:53 AM 53.1 °F - 43.0 °F 69% 29.66 in 10.0 mi South 15.0 mph - N/A   Clear
4:53 AM 54.0 °F - 44.1 °F 69% 29.66 in 10.0 mi South 15.0 mph - N/A   Clear
5:53 AM 54.0 °F - 44.1 °F 69% 29.65 in 10.0 mi South 13.8 mph 23.0 mph N/A   Clear
6:53 AM 55.0 °F - 44.1 °F 67% 29.67 in 10.0 mi South 15.0 mph 24.2 mph N/A   Mostly Cloudy
7:53 AM 55.9 °F - 45.0 °F 67% 29.68 in 10.0 mi South 17.3 mph - N/A   Overcast
8:53 AM 60.1 °F - 46.9 °F 62% 29.68 in 10.0 mi South 21.9 mph 32.2 mph N/A   Overcast
9:53 AM 61.0 °F - 48.0 °F 62% 29.67 in 10.0 mi South 21.9 mph 34.5 mph N/A   Overcast
10:53 AM 63.0 °F - 48.9 °F 60% 29.66 in 10.0 mi SSW 24.2 mph 32.2 mph N/A   Overcast
11:53 AM 64.9 °F - 50.0 °F 58% 29.65 in 10.0 mi SW 24.2 mph 36.8 mph N/A   Overcast
12:53 PM 64.0 °F - 50.0 °F 60% 29.65 in 10.0 mi SSW 24.2 mph 32.2 mph N/A   Overcast
1:53 PM 54.0 °F - 46.9 °F 77% 29.68 in 10.0 mi West 18.4 mph 34.5 mph 0.00 in Rain Light Rain
2:00 PM 51.8 °F - 44.6 °F 76% 29.69 in 10.0 mi West 23.0 mph 32.2 mph 0.00 in Rain Light Rain
2:53 PM 46.9 °F - 43.0 °F 86% 29.73 in 9.0 mi WNW 16.1 mph - 0.00 in Rain Light Rain
3:25 PM 46.4 °F 39.5 °F 42.8 °F 87% 29.73 in 7.0 mi WNW 17.3 mph - 0.00 in   Overcast
3:38 PM 44.6 °F 36.9 °F 39.2 °F 81% 29.75 in 5.0 mi WNW 18.4 mph - 0.00 in Rain Light Rain
3:53 PM 43.0 °F 34.8 °F 39.0 °F 86% 29.76 in 6.0 mi WNW 18.4 mph - 0.00 in   Overcast
4:53 PM 39.9 °F 32.9 °F 36.0 °F 86% 29.78 in 9.0 mi WNW 11.5 mph - 0.00 in   Overcast
5:53 PM 37.9 °F 28.2 °F 34.0 °F 86% 29.82 in 9.0 mi WNW 18.4 mph - 0.00 in   Overcast
6:53 PM 36.0 °F 26.3 °F 32.0 °F 86% 29.85 in 10.0 mi NW 16.1 mph - N/A   Overcast
7:53 PM 36.0 °F 28.0 °F 30.9 °F 82% 29.88 in 10.0 mi NW 11.5 mph - N/A   Overcast
8:53 PM 34.0 °F 23.0 °F 28.9 °F 82% 29.91 in 10.0 mi NW 18.4 mph 25.3 mph 0.00 in   Overcast
9:53 PM 33.1 °F 21.2 °F 27.0 °F 78% 29.95 in 10.0 mi NW 20.7 mph 28.8 mph 0.00 in Rain Light Rain
10:53 PM 32.0 °F 21.6 °F 26.1 °F 79% 29.98 in 10.0 mi WNW 15.0 mph - 0.00 in   Overcast
11:34 PM 30.2 °F 19.3 °F 24.8 °F 80% 29.98 in 10.0 mi NW 15.0 mph - N/A   Scattered Clouds